www.pogodaiklimat.ru

Погода и климат >> Архив погоды >> Германия >> Frankfurt


АРХИВ ПОГОДЫ в Frankfurt

Время (UTC), дата Ветер
(напр.,м/с)
 
Видим.   Явления Облачность Т
(С)
Тd
(С)
f
(%)
Тe
(С)
Тes
(С)
Комфортность P
(гПа)
Po
(гПа)
Тmin
(С)
Tmax
(С)
R
(мм)
R24
(мм)
S
(см)
16 14.10 Ю 2-4
{4}
60 км 1/1 1500 м
[Sc]
+19.7 +13.4 67 +22 +22 комфорт 1026.8 1014.5
17 14.10 В 1-1
{2}
60 км 1/0
[Ci fib]
+15.4 +12.4 82 +16 +16 тепло 1027.0 1014.5
18 14.10 ЮВ 1 55 км местами туман поземный ясно +13.9 +12.4 91 +14 +14 тепло 1027.2 1014.6 +9.8 +22.0
19 14.10 С 2-3
{3}
45 км местами туман поземный ясно +13.6 +12.2 91 +13 +13 тепло 1027.6 1015.0
20 14.10 СВ 1-2
{2}
40 км местами туман поземный ясно +14.3 +12.4 88 +15 +15 тепло 1027.9 1015.3
21 14.10 В 2-3
{3}
35 км местами туман поземный ясно +12.6 +11.7 94 +12 +12 тепло 1027.6 1015.0
22 14.10 СВ 2-3
{4}
30 км туман поземный ясно +11.6 +10.9 95 +10 +10 тепло 1027.7 1015.0
23 14.10 СВ 1-1
{3}
30 км местами туман поземный ясно +11.7 +11.1 96 +11 +11 тепло 1027.6 1014.9
00 15.10 СВ 3-3
{4}
30 км туман на расстоянии туман ясно +11.0 +10.4 96 +9 +9 по сезону 1027.4 1014.7
01 15.10 СВ 1-2
{3}
25 км туман на расстоянии туман ясно +10.2 +9.8 97 +10 +10 тепло 1027.1 1014.4
02 15.10 В 2-3
{3}
20 км туман на расстоянии туман ясно +10.0 +9.5 97 +8 +8 тепло 1026.7 1014.0
03 15.10 В 1-2
{3}
18 км туман на расстоянии туман 1/1 60 м
[St]
+9.3 +8.7 96 +9 +9 тепло 1026.8 1014.0
04 15.10 ЮВ 1-1
{2}
3500 м туман на расстоянии туман 1/1 30 м
[St]
+8.2 +7.8 97 +7 +7 тепло 1026.8 1014.0
05 15.10 штиль 0-1
{2}
1500 м туман на расстоянии 4/4 30 м
[St]
+7.6 +7.2 97 +7 +7 тепло 1027.2 1014.3
06 15.10 ЮВ 1 100 м туман 8/8 <50 м
[St]
+8.8 +8.5 98 +8 +8 по сезону 1027.3 1014.5 +7.3 +14.3
07 15.10 С 1-1
{2}
<100 м туман ?/? +9.5 +9.5 100 +9 +9 тепло 1027.7 1014.9
08 15.10 ЮЗ 1-2
{3}
<100 м туман ?/? +10.6 +10.3 98 +10 +10 тепло 1027.8 1015.1
09 15.10 ЮЗ 2-4
{4}
300 м туман ?/? +11.1 +10.7 97 +10 +10 по сезону 1027.9 1015.2 0.0
10 15.10 ЮЗ 2-3
{5}
400 м туман ?/? +11.8 +11.4 97 +11 +11 по сезону 1027.8 1015.1
11 15.10 ЮЗ 2-3
{4}
2500 м в посл. час туман туман 10/10 90 м
[St]
+12.1 +11.5 96 +11 +11 по сезону 1027.3 1014.7
12 15.10 ЮЗ 2 7000 м дымка {туман} 9/9 90 м
[St]
+13.3 +11.8 91 +13 +13 по сезону 1026.7 1014.1
13 15.10 ЮЗ 2-4
{6}
11 км 4/4 150 м
[St]
+15.2 +12.4 83 +15 +17 тепло 1025.9 1013.4
14 15.10 З 2-3
{4}
14 км ясно +17.0 +12.3 74 +17 +20 тепло 1025.2 1012.8
15 15.10 ЮЗ 2-3
{6}
13 км ясно +16.6 +12.4 76 +17 +18 тепло 1024.7 1012.3
16 15.10 ЮЗ 2-3
{4}
13 км ясно +16.0 +12.5 80 +16 +16 тепло 1024.4 1012.0
17 15.10 С 1-2
{2}
11 км местами туман поземный ясно +13.2 +12.2 94 +13 +13 тепло 1024.6 1012.0
18 15.10 СВ 1 10 км местами туман поземный ясно +11.7 +11.0 95 +11 +11 по сезону 1024.7 1012.1 +8.8 +17.4
19 15.10 штиль 0-1
{2}
7000 м местами туман поземный ясно +10.7 +10.1 96 +10 +10 тепло 1024.9 1012.2
20 15.10 В 1-2
{2}
7000 м местами туман поземный 1/1 30 м
[St]
+10.2 +9.7 97 +10 +10 тепло 1025.0 1012.3
21 15.10 ЮВ 1-1
{2}
6000 м местами туман поземный 1/1 30 м
[St]
+9.4 +8.8 96 +9 +9 по сезону 1025.4 1012.6
22 15.10 ЮЗ 1-1
{1}
6000 м местами туман поземный ясно +8.9 +8.4 97 +8 +8 тепло 1025.5 1012.7
23 15.10 Ю 1-1
{2}
1200 м туман на расстоянии 5/5 30 м
[St]
+7.8 +7.3 97 +7 +7 по сезону 1025.5 1012.7
00 16.10 Ю 1-2
{2}
100 м туман ?/? +8.0 +7.7 98 +7 +7 по сезону 1025.6 1012.8
01 16.10 ЮВ 1-2
{2}
100 м туман ?/? +7.8 +7.4 97 +7 +7 тепло 1025.8 1013.0
02 16.10 СВ 1-1
{2}
100 м туман ?/? +7.3 +7.0 98 +6 +6 по сезону 1025.6 1012.7
03 16.10 В 1-2
{2}
300 м туман ?/? +8.2 +7.9 98 +7 +7 по сезону 1025.5 1012.7
04 16.10 Ю 2-4
{4}
100 м туман ?/? +8.6 +8.3 98 +7 +7 тепло 1025.7 1012.9
05 16.10 Ю 2-5
{7}
300 м туман ?/? +8.0 +7.6 97 +6 +6 по сезону 1025.6 1012.8
06 16.10 Ю 1 100 м туман ?/? +8.5 +8.2 98 +8 +8 по сезону 1025.7 1012.9 +7.0 +11.8
07 16.10 Ю 2-3
{4}
100 м туман ?/? +9.3 +9.1 99 +7 +7 по сезону 1026.3 1013.5
08 16.10 Ю 1-2
{4}
200 м туман ?/? +10.3 +10.3 100 +10 +10 тепло 1026.2 1013.5
09 16.10 ЮЗ 2-3
{4}
1700 м в посл. час туман туман 10/10 30 м
[St]
+11.2 +10.8 97 +10 +10 по сезону 1026.6 1013.9
10 16.10 ЮЗ 2-4
{6}
12 км 1/1 60 м
[St Ac trans]
+13.2 +10.9 86 +12 +16 тепло 1026.5 1013.9
11 16.10 ЮЗ 2-3
{5}
18 км 1/0
[Ac trans]
+16.3 +12.0 76 +16 +21 тепло 1026.0 1013.6
12 16.10 ЮЗ 2-4
{6}
25 км {туман} 1/0
[Ac trans]
+18.6 +12.7 69 +20 +24 тепло 1025.5 1013.2
13 16.10 ЮЗ 2-5
{6}
27 км 1/0
[Ac trans]
+19.8 +12.4 62 +22 +26 комфорт 1025.0 1012.7
14 16.10 ЮЗ 1-2
{5}
28 км 1/0
[Ac trans]
+20.9 +12.8 60 +24 +27 комфорт 1024.4 1012.2
15 16.10 З 1-1
{6}
28 км 3/0
[Ci fib]
+21.0 +12.9 60 +25 +26 комфорт 1024.1 1011.9
16 16.10 СВ 1-1
{2}
30 км 4/0
[Ci fib]
+18.4 +14.6 79 +20 +20 тепло 1023.9 1011.6
17 16.10 СВ 1-2
{2}
30 км 3/0
[Ci fib]
+15.5 +13.6 88 +16 +16 тепло 1024.0 1011.6
18 16.10 СВ 1 25 км местами туман поземный 1/0
[Ci fib]
+14.2 +13.0 92 +14 +14 тепло 1024.0 1011.5 +8.5 +21.3
19 16.10 СВ 2-2
{2}
25 км местами туман поземный 1/0
[Ci fib]
+13.8 +12.7 93 +13 +13 тепло 1024.0 1011.5
20 16.10 СВ 1-1
{3}
25 км местами туман поземный 1/0
[Ci fib]
+12.8 +12.3 97 +13 +13 тепло 1024.0 1011.4
21 16.10 СВ 1-2
{3}
23 км местами туман поземный ясно +12.1 +11.5 96 +12 +12 тепло 1024.1 1011.5
22 16.10 В 1-2
{2}
20 км туман на расстоянии туман ясно +11.0 +10.5 97 +11 +11 тепло 1024.3 1011.6
23 16.10 СВ 1-1
{2}
6000 м туман на расстоянии туман 1/1 30 м
[St]
+10.0 +9.5 97 +9 +9 тепло 1024.1 1011.4
00 17.10 СВ 1-2
{3}
15 км туман на расстоянии 1/1 30 м
[St]
+9.4 +8.9 97 +9 +9 по сезону 1024.2 1011.5
01 17.10 В 1-1
{1}
14 км туман на расстоянии туман 1/1 30 м
[St]
+8.3 +7.8 97 +7 +7 тепло 1024.1 1011.3
02 17.10 С 1-1
{1}
14 км туман на расстоянии туман 1/1 30 м
[St]
+7.8 +7.3 97 +7 +7 тепло 1024.0 1011.2
03 17.10 В 1-1
{2}
3200 м дымка туман 1/1 30 м
[St]
+7.2 +6.6 96 +6 +6 по сезону 1024.1 1011.3
04 17.10 З 1-2
{2}
2800 м туман на расстоянии 1/1 30 м
[St]
+6.8 +6.5 98 +6 +6 тепло 1024.1 1011.2
05 17.10 СВ 1-1
{2}
600 м туман 4/4 30 м
[St]
+6.6 +6.3 98 +5 +5 по сезону 1024.1 1011.2
06 17.10 ЮЗ 1 400 м туман 3/3 <50 м
[St]
+6.7 +6.3 97 +5 +5 по сезону 1024.1 1011.2 +6.4 +15.4
07 17.10 ЮЗ 1-1
{2}
3500 м в посл. час туман туман 1/1 30 м
[St]
+7.1 +6.6 97 +6 +6 по сезону 1024.6 1011.7
08 17.10 Ю 2-5
{5}
16 км 1/1 60 м
[St Ci fib]
+10.4 +9.1 92 +9 +10 по сезону 1024.4 1011.7
09 17.10 ЮЗ 4
{6}
16 км {туман} 1/0
[Ci fib]
+12.6 +10.0 84 +11 +13 тепло 1024.2 1011.6
10 17.10 Ю 3-6
{6}
22 км 1/0
[Ci fib]
+15.6 +11.0 74 +15 +18 тепло 1023.8 1011.3
11 17.10 ЮЗ 1-3
{4}
25 км 3/0
[Ci fib]
+17.7 +10.4 62 +19 +24 тепло 1023.0 1010.6
12 17.10 ЮЗ 2-3
{6}
25 км {туман} 1/0
[Ci fib]
+19.6 +10.7 56 +21 +26 комфорт 1022.1 1009.8 0.0
13 17.10 ЮЗ 2-3
{4}
40 км 3/0
[Ci fib]
+21.4 +10.4 49 +23 +27 комфорт 1021.0 1008.8
14 17.10 З 1-2
{3}
45 км 3/0
[Ci fib]
+21.0 +10.1 50 +24 +27 комфорт 1020.3 1008.1
15 17.10 ЮЗ 1-2
{4}
50 км 3/0
[Ci fib]
+21.2 +11.9 55 +23 +24 комфорт 1019.8 1007.6
16 17.10 В 1-1
{2}
50 км 4/0
[Ci fib]
+17.4 +13.3 77 +18 +19 тепло 1019.4 1007.1
17 17.10 СВ 1-1
{2}
50 км 4/0
[Ci fib]
+14.8 +12.6 87 +15 +15 тепло 1019.4 1007.0
18 17.10 СВ 1 35 км местами туман поземный 4/0
[Ci fib]
+13.3 +11.9 91 +13 +13 тепло 1019.5 1007.0 +6.5 +21.7
19 17.10 СВ 1-1
{2}
25 км местами туман поземный 4/0
[Ci fib]
+12.1 +11.3 95 +12 +12 тепло 1019.1 1006.6
20 17.10 В 1-2
{2}
25 км местами туман поземный 4/0
[Ci fib]
+11.4 +10.6 95 +11 +11 тепло 1019.1 1006.5
21 17.10 В 1-2
{2}
18 км местами туман поземный 3/0
[Ci fib]
+11.0 +10.3 95 +11 +11 тепло 1018.9 1006.3
22 17.10 СВ 2-2
{2}
15 км местами туман поземный 3/0
[Ci fib]
+10.7 +10.0 95 +9 +9 тепло 1018.5 1005.9
23 17.10 СВ 2-2
{2}
15 км местами туман поземный 3/0
[Ci fib]
+11.0 +10.1 94 +10 +10 тепло 1018.1 1005.5
00 18.10 СВ 2-2
{3}
15 км местами туман поземный 1/0
[Ci fib]
+10.5 +9.0 90 +9 +9 тепло 1017.9 1005.3
01 18.10 СВ 2-3
{3}
15 км местами туман поземный 3/0
[Ci fib]
+9.7 +8.9 95 +8 +8 тепло 1017.8 1005.2
02 18.10 СВ 1-1
{2}
7000 м местами туман поземный туман 1/1 30 м
[St Ci fib]
+8.8 +8.2 96 +8 +8 тепло 1017.7 1005.0
03 18.10 В 1-2
{3}
1800 м туман на расстоянии туман 4/4 30 м
[St]
+7.6 +7.0 96 +7 +7 по сезону 1017.3 1004.6
04 18.10 С 1-2
{2}
900 м туман 6/6 30 м
[St]
+7.1 +6.8 98 +6 +6 тепло 1017.3 1004.5
05 18.10 В 1-2
{2}
8000 м в посл. час туман туман 8/3 30 м
[St Ac trans Ci fib]
+6.5 +6.0 97 +5 +5 по сезону 1017.2 1004.4
06 18.10 Ю 1 100 м туман 9/6 <50 м
[St Ci fib]
+6.1 +6.0 99 +5 +5 по сезону 1017.1 1004.3 +5.3 +13.2
07 18.10 Ю 1-2
{2}
<100 м туман ?/? +7.0 +6.8 99 +6 +6 по сезону 1017.3 1004.5
08 18.10 ЮЗ 1-4
{4}
300 м туман 9/9 30 м
[St]
+8.9 +8.5 97 +8 +8 по сезону 1017.3 1004.6
09 18.10 ЮЗ 2 4000 м в посл. час туман 9/6 30 м
[St Ci fib]
+9.9 +9.3 96 +8 +9 по сезону 1017.1 1004.5
10 18.10 ЮЗ 2-4
{5}
10 км 6/1 150 м
[Cu hum Ci sp]
+12.0 +9.4 84 +11 +14 тепло 1016.8 1004.3
11 18.10 ЮЗ 2-4
{5}
25 км 4/0
[Ci sp]
+15.3 +9.7 69 +15 +20 тепло 1016.2 1003.8
12 18.10 ЮЗ 2-4
{5}
30 км {туман} 4/0
[Ci sp]
+18.0 +10.3 61 +19 +23 тепло 1015.5 1003.2
13 18.10 ЮЗ 3-5
{5}
35 км 3/0
[Ci sp]
+18.7 +10.8 60 +19 +23 тепло 1014.8 1002.6
14 18.10 ЮЗ 3-6
{6}
45 км 3/0
[Ci sp]
+19.6 +11.1 58 +21 +23 комфорт 1014.3 1002.1
15 18.10 ЮЗ 1-2
{6}
45 км 3/0
[Ci sp]
+19.7 +11.2 58 +22 +23 комфорт 1014.0 1001.8
16 18.10 штиль 0-1
{4}
45 км 1/0
[Ci sp]
+16.7 +12.2 75 +17 +17 тепло 1014.0 1001.7
17 18.10 В 1-1
{2}
45 км 1/0
[Ci sp]
+13.6 +11.4 87 +14 +14 тепло 1014.2 1001.8
18 18.10 В 1 25 км местами туман поземный 1/0
[Ac lent Ci sp]
+12.0 +11.0 94 +12 +12 тепло 1014.5 1002.0 +6.1 +20.1
19 18.10 В 1-1
{2}
25 км местами туман поземный ясно +11.1 +10.4 95 +11 +11 тепло 1014.6 1002.1
20 18.10 СВ 1-2
{2}
25 км местами туман поземный ясно +10.6 +10.0 96 +10 +10 тепло 1014.8 1002.2
21 18.10 СВ 1-2
{3}
20 км местами туман поземный ясно +10.0 +9.4 96 +9 +9 по сезону 1014.7 1002.1
22 18.10 СВ 2-2
{3}
20 км местами туман поземный ясно +9.8 +9.2 96 +8 +8 тепло 1014.7 1002.1
23 18.10 СВ 1-2
{2}
20 км местами туман поземный ясно +10.4 +9.3 93 +10 +10 тепло 1014.7 1002.1
00 19.10 СВ 1-2
{3}
20 км местами туман поземный ясно +9.9 +9.1 95 +9 +9 тепло 1014.7 1002.1
01 19.10 СВ 2-2
{2}
20 км местами туман поземный ясно +9.4 +8.8 96 +8 +8 тепло 1014.6 1002.0
02 19.10 СВ 2-2
{2}
20 км местами туман поземный ясно +8.1 +6.6 90 +6 +6 по сезону 1014.3 1001.6
03 19.10 СВ 1-2
{2}
20 км местами туман поземный 1/0
[Ci fib]
+8.6 +8.2 97 +8 +8 по сезону 1014.4 1001.7
04 19.10 СВ 1-2
{2}
18 км местами туман поземный 3/0
[Ac trans]
+8.2 +7.7 97 +7 +7 тепло 1014.2 1001.5
05 19.10 СВ 2-2
{2}
15 км туман на расстоянии туман 4/0
[Ac trans]
+7.4 +6.9 97 +5 +5 по сезону 1014.0 1001.3
06 19.10 В 2 15 км 6/0
[Ac trans Ci fib]
+8.1 +7.4 95 +6 +6 по сезону 1014.1 1001.4 +7.2 +12.0
07 19.10 СВ 1-2
{2}
20 км 6/1 1500 м
[Sc Ac trans Ci fib]
+8.3 +7.5 95 +7 +7 по сезону 1014.6 1001.9
08 19.10 В 1-2
{2}
20 км 8/1 1500 м
[Sc Ac trans Ci fib]
+10.9 +8.4 85 +11 +11 тепло 1014.8 1002.2
09 19.10 С 1 18 км 6/1 1500 м
[Sc Ac trans Ci fib]
+13.0 +9.5 79 +13 +15 тепло 1014.9 1002.4
10 19.10 ЮЗ 1-2
{3}
18 км 3/0
[Ac lent Ci fib]
+15.1 +9.9 71 +16 +20 тепло 1014.8 1002.4
11 19.10 Ю 4-7
{7}
20 км 3/1 1500 м
[Sc Ac trans Ci fib]
+16.4 +9.5 64 +16 +18 тепло 1014.6 1002.3
12 19.10 ЮЗ 3-7
{7}
25 км 3/0
[Ac cast Ci fib]
+18.2 +9.9 58 +19 +22 тепло 1013.7 1001.5
13 19.10 Ю 2-3
{5}
35 км 4/0
[Ac cast Ci fib]
+19.2 +9.8 54 +21 +24 комфорт 1012.8 1000.6
14 19.10
{3}
40 км 4/0
[Ac cast Ci fib]
+20.0 +10.5 54 1012.2 1000.1
15 19.10 З 1-2
{5}
45 км 4/0
[Ac lent Ci fib]
+20.1 +11.1 56 +23 +24 комфорт 1012.0 999.9
16 19.10 ЮВ 1-3
{3}
45 км 4/0
[Ac cast Ci fib]
+17.7 +12.8 73 +19 +19 тепло 1012.0 999.8
17 19.10 ЮВ 1-3
{3}
45 км 5/0
[Ac cast Ci fib]
+14.7 +11.9 83 +15 +15 тепло 1012.2 999.9
18 19.10 Ю 1 40 км 9/0
[Ac As]
+14.2 +11.9 86 +15 +15 тепло 1012.7 1000.3 +8.1 +20.8
19 19.10 В 1-2
{2}
40 км 9/0
[Ac und]
+14.3 +11.9 85 +15 +15 тепло 1012.6 1000.2
20 19.10 В 1-2
{2}
40 км 8/0
[Ac trans Ci fib]
+13.5 +11.8 89 +14 +14 тепло 1012.7 1000.3
21 19.10 СВ 1-2
{2}
35 км местами туман поземный 4/0
[Ac trans Ci fib]
+11.9 +11.0 94 +12 +12 тепло 1012.8 1000.3
22 19.10 СВ 1-1
{2}
35 км туман поземный 3/0
[Ac trans]
+11.0 +10.3 95 +11 +11 тепло 1012.6 1000.1
23 19.10 СВ 1-1
{2}
30 км 6/0
[Ac trans]
+11.4 +10.7 95 +11 +11 тепло 1012.6 1000.1
00 20.10 СВ 1 30 км 9/0
[Ac As]
+11.6 +10.8 95 +11 +11 тепло 1012.9 1000.4
01 20.10 СВ 1-2
{2}
30 км 10/0
[Ac As]
+11.6 +10.6 94 +11 +11 тепло 1013.0 1000.5
02 20.10 В 2-3
{3}
30 км 9/0
[Ac As]
+11.6 +10.8 95 +10 +10 тепло 1012.8 1000.3
03 20.10 В 1-2
{3}
30 км 9/0
[Ac As]
+11.1 +10.2 94 +11 +11 тепло 1012.4 999.9
04 20.10 СВ 1-2
{3}
30 км 9/0
[Ac As]
+11.3 +10.4 94 +11 +11 тепло 1012.2 999.7
05 20.10 В 1-2
{2}
23 км слабый дождь 10/3 1000 м
[Sc Ac As]
+11.6 +10.6 94 +11 +11 тепло 1012.3 999.8
06 20.10 ЮВ 1 17 км в посл. час дождь 9/1 1000 м
[Cu Sc Ac As]
+11.5 +10.7 95 +11 +11 тепло 1012.3 999.8 +10.8 +15.1 0.0
07 20.10 ЮВ 1-5
{5}
20 км слабый дождь 9/3 1000 м
[Sc Ac As]
+11.9 +10.8 93 +12 +12 тепло 1012.8 1000.3
08 20.10 Ю 2-4
{4}
17 км в посл. час дождь 9/1 1000 м
[Sc Ac As]
+12.4 +11.1 92 +11 +12 тепло 1013.5 1001.0
09 20.10 Ю 1 16 км дождь 9/4 930 м
[Sc Ac As]
+12.9 +11.5 91 +13 +14 тепло 1013.3 1000.9 0.3
10 20.10 Ю 3-6
{10}
20 км в посл. час дождь 8/5 600 м
[Cu Sc Ac As]
+14.8 +11.5 81 +14 +15 тепло 1013.3 1000.9
11 20.10 Ю 6-8
{11}
25 км 9/8 600 м
[Cu Sc Ac As]
+17.0 +11.7 71 +16 +16 тепло 1013.1 1000.8
12 20.10 ЮЗ 9 45 км в посл. час дождь 10/9 720 м
[Cu Sc]
+15.4 +10.3 72 +13 +13 тепло 1014.1 1001.8 0.5
13 20.10 ЮЗ 8-12
{14}
18 км в посл. час ливневой дождь 8/8 540 м
[Cu Sc]
+13.4 +9.8 79 +11 +11 тепло 1014.3 1001.9
14 20.10 ЮЗ 7-11
{12}
45 км {ливн. осадки, дождь} 8/5 540 м
[Cu Sc Ac trans Ci fib]
+15.0 +8.5 65 +13 +13 тепло 1014.0 1001.6
15 20.10 ЮЗ 6-9
{14}
60 км {ливн. осадки, дождь} 5/3 720 м
[Cu hum Ac trans Ci fib]
+15.4 +7.8 60 +14 +14 тепло 1014.5 1002.1 0.1
16 20.10 ЮЗ 6-9
{11}
60 км 4/3 720 м
[Cu Sc Ac trans Ci fib]
+14.1 +7.8 66 +12 +12 тепло 1014.8 1002.4
17 20.10 ЮЗ 5-9
{11}
60 км 4/3 720 м
[Cu Sc Ac trans Ci fib]
+12.6 +8.3 75 +10 +10 тепло 1015.4 1002.9
18 20.10 Ю 5 50 км {ливн. осадки, дождь} 3/1 2000 м
[Sc Ac trans Ci fib]
+11.7 +8.2 79 +9 +9 по сезону 1015.8 1003.3 +11.5 +17.6
19 20.10 ЮЗ 2-3
{9}
55 км 3/1 1500 м
[Sc Ci fib]
+10.6 +8.0 84 +9 +9 тепло 1016.4 1003.8
20 20.10 Ю 2-3
{3}
50 км местами туман поземный 1/1 1350 м
[Sc]
+8.2 +7.3 94 +6 +6 по сезону 1016.9 1004.2
21 20.10 ЮЗ 2-3
{9}
50 км местами туман поземный 4/4 1350 м
[Sc]
+8.1 +7.2 94 +6 +6 по сезону 1017.1 1004.4
22 20.10 ЮВ 1-1
{2}
50 км местами туман поземный 4/4 1350 м
[Sc]
+6.9 +6.3 96 +6 +6 тепло 1017.1 1004.3
23 20.10 В 1-2
{2}
50 км туман на расстоянии туман 5/1 90 м
[St Ci sp]
+6.3 +5.7 96 +5 +5 по сезону 1017.2 1004.4
00 21.10 ЮВ 1 50 км местами туман поземный 8/0
[As trans Ci sp]
+6.6 +6.0 96 +5 +5 по сезону 1017.2 1004.4
01 21.10 Ю 2-2
{2}
50 км 8/0
[As trans Ci sp]
+6.6 +5.9 95 +4 +4 тепло 1017.1 1004.3
02 21.10 В 1-2
{2}
40 км 9/0
[Ac As]
+7.1 +6.4 95 +6 +6 по сезону 1016.9 1004.1
03 21.10 ЮВ 1-2
{2}
35 км 5/0
[Ac As]
+6.6 +5.9 95 +5 +5 по сезону 1016.6 1003.8
04 21.10 Ю 2-5
{5}
35 км местами туман поземный 4/1 900 м
[Sc Ac trans]
+5.7 +4.9 95 +3 +3 по сезону 1016.5 1003.7
05 21.10 Ю 1-4
{5}
30 км 9/5 630 м
[Sc Ac trans]
+7.1 +6.5 96 +6 +6 тепло 1016.4 1003.6
06 21.10 В 2 25 км 8/5 600 м
[Sc Ac trans Ci fib]
+6.7 +5.8 94 +4 +4 по сезону 1016.2 1003.4 +5.7 +11.7
07 21.10 ЮВ 1-3
{4}
25 км 8/6 1050 м
[Cu Sc Ci fib]
+7.6 +7.0 96 +7 +7 тепло 1016.0 1003.3
08 21.10 Ю 1-2
{3}
25 км 10/9 540 м
[Cu Sc]
+9.2 +8.3 94 +8 +9 по сезону 1015.9 1003.3
09 21.10 ЮЗ 2 25 км 8/6 700 м
[Sc Ac trans Ci fib]
+12.2 +10.1 87 +11 +12 тепло 1015.6 1003.1
10 21.10 ЮЗ 3-5
{6}
35 км 9/9 540 м
[Cu Sc]
+13.8 +10.3 79 +13 +13 тепло 1015.2 1002.8
11 21.10 ЮЗ 3-5
{5}
35 км в посл. час дождь 9/9 330 м
[Cu Sc]
+14.6 +11.5 82 +14 +14 тепло 1015.1 1002.7
12 21.10 Ю 3 35 км {дождь} 9/9 450 м
[Cu Sc]
+15.9 +12.1 78 +15 +16 тепло 1014.4 1002.1 0.0
13 21.10 ЮЗ 4-7
{8}
35 км слабый дождь 10/9 450 м
[Cu Sc]
+16.9 +12.6 76 +16 +17 тепло 1014.3 1002.0
14 21.10 ЮЗ 4-5
{10}
40 км в посл. час дождь 9/9 630 м
[Cu Sc]
+16.7 +13.1 79 +16 +16 тепло 1014.2 1001.9
15 21.10 ЮЗ 4 40 км {дождь} 9/9 630 м
[Cu Sc]
+16.6 +13.0 79 +16 +16 тепло 1014.0 1001.7 0.0
16 21.10 ЮЗ 3-4
{9}
50 км в посл. час дождь 9/9 630 м
[Cu Sc]
+16.1 +12.6 80 +16 +16 тепло 1013.9 1001.6

 

Местоположение метеостанции Frankfurt (Германия): широта 50.05 долгота 8.60 высота над уровнем моря 112 м.

В архиве по умолчанию представлена погода в Frankfurt за последнюю неделю. Архивные данные за месяц целиком и за предыдущие месяцы, начиная с января 2011 года, Вы можете получить, выбрав интересующий диапазон дат из раскрывающегося списка и нажав кнопку "Ввод!".

Внимание! Время в таблицах - всемирное. Для получения местного времени необходимо прибавить поправку, которая в Frankfurt равна 1 ч.

Смотрите также архив погоды в соседних городах и на ближайших метеорологических станциях:

Погода в Offenbach Wetterpark (Германия) (13 км)
Погода в Kleiner Feldberg (Германия) (22 км)
Погода в Geisenheim (Германия) (47 км)
Погода в Michelstadt (Германия) (51 км)
Погода в Neuhuetten / Spessart (Германия) (59 км)
Погода в Mannheim (Германия) (59 км)
Погода в Giessen (Германия) (59 км)
Погода в Hoherodskopf-Vogelsberg (Германия) (68 км)
Погода в Koblenz Falckenstein-Kaserne (Германия) (81 км)
Погода в Weinbiet (Германия) (82 км)

Пояснения к столбцам:

Ветер - указаны скорость ветра в м/с - средняя за 10 мин, порывы в срок и между сроками (в фигурных скобках) и направление, откуда дует ветер: С - северный, СВ - северо-восточный, В - восточный, ЮВ - юго-восточный, Ю - южный, ЮЗ - юго-западный, З - западный, СЗ - северо-западный.
Видимость - горизонтальная дальность видимости в метрах или километрах. При видимости от 1 до 10 км при отсутствии осадков обычно наблюдается дымка, при ухудшении видимости до 1 км и менее - туман. В сухую погоду видимость может ухудшаться дымом, пылью или мглою.
Явления - указаны атмосферные явления, наблюдавшиеся в срок или в последний час перед сроком; фигурными скобками обозначены явления, наблюдавшиеся между сроками (за 1-3 часа до срока); квадратными скобками обозначены град или гололедные отложения с указанием их диаметра в мм.
Облачность - указаны через наклонную черту общая и нижняя облачность в баллах и высота нижней границы облаков в метрах; квадратными скобками обозначены формы облаков: Ci - перистые, Cs - перисто-слоистые, Cc - перисто-кучевые, Ac - высококучевые, As - высокослоистые, Sc - слоисто-кучевые, Ns - слоисто-дождевые, Cu - кучевые, Cb - кучево-дождевые. Подробнее классификацию облаков см. в Атласе облаков (PDF).
T - Температура воздуха - температура, измеренная на высоте 2 м над землей.
Td - Температура точки росы - температура, при понижении до которой содержащийся в воздухе водяной пар достигнет насыщения.
f - Относительная влажность воздуха - влажноcть воздуха, измеренная на высоте 2 м над землей.
Te - Эффективная температура - температура, которую ощущает одетый по сезону человек в тени. Характеристика душности погоды. При расчете учитывается влияние влажности воздуха и скорости ветра на теплоощущения человека.
Tes - Эффективная температура на солнце - температура, которую ощущает человек, с поправкой на солнечный нагрев. Характеристика знойности погоды. Зависит от высоты солнца над горизонтом, облачности и скорости ветра. Ночью, в пасмурную погоду, а также при ветре 12 м/с и более поправка равна нулю.
P - Атмосферное давление - приведенное к уровню моря атмосферное давление.
Po - Атмосферное давление - измеренное на уровне метеостанции атмосферное давление.
Tmin - Минимальная температура - минимум температуры воздуха на высоте 2 м над землей.
Tmax - Максимальная температура - максимум температуры воздуха на высоте 2 м над землей.
R - Количество осадков - Количество выпавших осадков за период времени, мм. При наведении курсора мыши на число - период времени, за который выпало указанное количество осадков.
R24 - Количество осадков - Количество выпавших осадков за 24 часа, мм.
S - Снежный покров - Высота снежного покрова, см. При наведении курсора мыши на число - состояние снежного покрова и степень покрытия местности в баллах.